Weather History for Cando, ND

Change the Weather History Date:

Thursday, December 12, 2013

  Actual Average (KDVL) Record (KDVL)
Temperature  
Mean Temperature -2 °F -  
Max Temperature 8 °F 22 °F 41 °F (1988)
Min Temperature -11 °F 3 °F -18 °F (1956)
Degree Days  
Heating Degree Days 66    
Moisture  
Dew Point -2 °F    
Average Humidity 79    
Maximum Humidity 92    
Minimum Humidity 71    
Precipitation  
Precipitation 0.03 in - - ()
Sea Level Pressure  
Sea Level Pressure 30.14 in    
Wind  
Wind Speed 6 mph (North)    
Max Wind Speed 15 mph    
Max Gust Speed 17 mph    
Visibility 9 miles    
Events Rain , Snow    
Averages and records for this station are not official NWS values.
T = Trace of Precipitation, MM = Missing Value Source: NWS Daily Summary

Daily Weather History Graph

Daily Weather History Graph

Search for Another Location

Airport:

Trip Planner

Search our weather history database for the weather conditions in past years. The results will help you decide how hot, cold, wet, or windy it might be!

Date:

Astronomy

Dec. 12, 2013 Rise Set
Actual Time 8:19 AM CST 4:41 PM CST
Civil Twilight 7:43 AM CST 5:18 PM CST
Nautical Twilight 7:03 AM CST 5:58 PM CST
Astronomical Twilight 6:25 AM CST 6:36 PM CST
Moon 2:05 PM CST (12/12) 3:26 AM CST (12/12)
Length of Visible Light 9h 35m
Length of Day
8h 21m
Waxing Gibbous, 80% of the Moon is Illuminated
Dec 12
Waxing Gibbous
Dec 17
Full
Dec 25
Last Quarter
Jan 1
New
Jan 7
First Quarter

Hourly Weather History & Observations

Time (CST) Temp. Windchill Dew Point Humidity Pressure Visibility Wind Dir Wind Speed Gust Speed Precip Events Conditions
12:15 AM -11.2 °F - -14.8 °F 84% 30.12 in 10.0 mi Calm Calm - N/A   Clear
12:35 AM -9.4 °F -22.7 °F -13.0 °F 84% 30.12 in 10.0 mi SW 5.8 mph - N/A   Clear
12:55 AM -7.6 °F -22.1 °F -11.2 °F 84% 30.13 in 10.0 mi West 6.9 mph - N/A   Clear
1:15 AM -7.6 °F -18.8 °F -11.2 °F 84% 30.13 in 10.0 mi West 4.6 mph - N/A   Clear
1:35 AM -4.0 °F -16.3 °F -9.4 °F 78% 30.13 in 10.0 mi West 5.8 mph - N/A   Scattered Clouds
1:55 AM -4.0 °F -14.6 °F -7.6 °F 85% 30.14 in 10.0 mi WNW 4.6 mph - N/A   Overcast
2:15 AM -2.2 °F -15.6 °F -5.8 °F 85% 30.14 in 10.0 mi West 6.9 mph - N/A   Overcast
2:35 AM -0.4 °F -12.0 °F -4.0 °F 85% 30.13 in 10.0 mi West 5.8 mph - N/A   Overcast
2:55 AM -0.4 °F -10.4 °F -4.0 °F 85% 30.13 in 10.0 mi West 4.6 mph - N/A   Overcast
3:15 AM -0.4 °F -12.0 °F -2.2 °F 92% 30.13 in 10.0 mi WNW 5.8 mph - N/A   Overcast
3:35 AM -0.4 °F -10.4 °F -2.2 °F 92% 30.13 in 10.0 mi WNW 4.6 mph - N/A   Overcast
3:55 AM -0.4 °F -10.4 °F -2.2 °F 92% 30.13 in 10.0 mi WNW 4.6 mph - N/A   Overcast
4:15 AM 1.4 °F -9.9 °F -2.2 °F 85% 30.12 in 10.0 mi West 5.8 mph - N/A   Overcast
4:35 AM 1.4 °F -9.9 °F -2.2 °F 85% 30.12 in 10.0 mi West 5.8 mph - N/A   Overcast
4:55 AM 1.4 °F -8.3 °F -2.2 °F 85% 30.12 in 10.0 mi WNW 4.6 mph - N/A   Overcast
5:15 AM 1.4 °F -8.3 °F -2.2 °F 85% 30.14 in 10.0 mi WNW 4.6 mph - N/A   Overcast
5:35 AM 1.4 °F -9.9 °F -2.2 °F 85% 30.14 in 10.0 mi West 5.8 mph - N/A   Overcast
5:55 AM 1.4 °F -11.3 °F -0.4 °F 92% 30.13 in 10.0 mi West 6.9 mph - N/A   Overcast
6:15 AM 1.4 °F -8.3 °F -0.4 °F 92% 30.13 in 10.0 mi West 4.6 mph - N/A   Overcast
6:35 AM 3.2 °F -7.8 °F -0.4 °F 85% 30.13 in 10.0 mi West 5.8 mph - N/A   Overcast
6:55 AM 3.2 °F -7.8 °F -0.4 °F 85% 30.13 in 10.0 mi West 5.8 mph - N/A   Overcast
7:15 AM 5.0 °F -4.1 °F -0.4 °F 78% 30.12 in 10.0 mi WNW 4.6 mph - N/A   Overcast
7:35 AM 5.0 °F -4.1 °F -0.4 °F 78% 30.13 in 10.0 mi NW 4.6 mph - N/A   Overcast
7:55 AM 5.0 °F - -0.4 °F 78% 30.11 in 10.0 mi Calm Calm - N/A   Overcast
8:15 AM 5.0 °F -4.1 °F -0.4 °F 78% 30.11 in 10.0 mi West 4.6 mph - N/A   Overcast
8:35 AM 5.0 °F -2.1 °F -0.4 °F 78% 30.12 in 10.0 mi WNW 3.5 mph - N/A   Overcast
8:55 AM 5.0 °F -2.1 °F -0.4 °F 78% 30.12 in 10.0 mi WNW 3.5 mph - N/A   Overcast
9:15 AM 6.8 °F -0.1 °F -0.4 °F 72% 30.12 in 10.0 mi NW 3.5 mph - N/A   Overcast
9:35 AM 6.8 °F - -0.4 °F 72% 30.12 in 10.0 mi Calm Calm - N/A   Overcast
9:55 AM 6.8 °F -0.1 °F 1.4 °F 79% 30.12 in 10.0 mi SW 3.5 mph - N/A   Overcast
10:15 AM 8.6 °F -1.3 °F 1.4 °F 73% 30.13 in 10.0 mi NNW 5.8 mph - N/A   Overcast
10:35 AM 6.8 °F -5.9 °F 1.4 °F 79% 30.14 in 10.0 mi North 8.1 mph - N/A   Overcast
10:55 AM 8.6 °F -2.6 °F 1.4 °F 73% 30.15 in 10.0 mi North 6.9 mph - N/A   Overcast
11:15 AM 8.6 °F -1.3 °F 1.4 °F 73% 30.14 in 10.0 mi North 5.8 mph - N/A   Overcast
11:35 AM 8.6 °F -1.3 °F 1.4 °F 73% 30.14 in 10.0 mi NNE 5.8 mph - N/A   Overcast
11:55 AM 8.6 °F 2.0 °F 1.4 °F 73% 30.13 in 10.0 mi NNE 3.5 mph - N/A   Overcast
12:15 PM 8.6 °F 0.1 °F 1.4 °F 73% 30.13 in 10.0 mi NNE 4.6 mph - N/A   Overcast
12:35 PM 8.6 °F 0.1 °F 1.4 °F 73% 30.13 in 10.0 mi North 4.6 mph - N/A   Overcast
12:55 PM 8.6 °F -2.6 °F 3.2 °F 79% 30.13 in 10.0 mi North 6.9 mph - N/A   Overcast
1:15 PM 8.6 °F -1.3 °F 3.2 °F 79% 30.12 in 10.0 mi NNE 5.8 mph - N/A   Overcast
1:35 PM 8.6 °F -2.6 °F 3.2 °F 79% 30.12 in 10.0 mi NNE 6.9 mph - N/A   Overcast
1:55 PM 8.6 °F 0.1 °F 3.2 °F 79% 30.11 in 10.0 mi NE 4.6 mph - N/A   Overcast
2:15 PM 8.6 °F -3.7 °F 1.4 °F 73% 30.12 in 10.0 mi NE 8.1 mph - N/A   Overcast
2:35 PM 8.6 °F -4.7 °F 1.4 °F 73% 30.12 in 10.0 mi NNE 9.2 mph - N/A   Overcast
2:55 PM 8.6 °F -5.5 °F 1.4 °F 73% 30.13 in 10.0 mi NNE 10.4 mph - N/A   Overcast
3:15 PM 6.8 °F -9.3 °F -0.4 °F 72% 30.13 in 10.0 mi NNE 12.7 mph - N/A   Overcast
3:35 PM 6.8 °F -9.3 °F -0.4 °F 72% 30.14 in 10.0 mi NNE 12.7 mph - N/A   Overcast
3:55 PM 6.8 °F -7.8 °F -0.4 °F 72% 30.14 in 10.0 mi NE 10.4 mph - N/A   Overcast
4:15 PM 6.8 °F -7.8 °F -0.4 °F 72% 30.14 in 10.0 mi NE 10.4 mph - N/A   Overcast
4:35 PM 6.8 °F -4.8 °F -0.4 °F 72% 30.15 in 10.0 mi NE 6.9 mph - N/A   Overcast
4:55 PM 5.0 °F -9.1 °F -0.4 °F 78% 30.15 in 10.0 mi NE 9.2 mph - N/A   Overcast
5:15 PM 5.0 °F -8.1 °F -0.4 °F 78% 30.15 in 10.0 mi NE 8.1 mph - N/A   Overcast
5:35 PM 5.0 °F -8.1 °F -0.4 °F 78% 30.16 in 10.0 mi NE 8.1 mph - N/A   Overcast
5:55 PM 5.0 °F -8.1 °F -0.4 °F 78% 30.16 in 10.0 mi NE 8.1 mph - N/A   Overcast
6:15 PM 5.0 °F -9.1 °F -0.4 °F 78% 30.16 in 10.0 mi ENE 9.2 mph - N/A   Overcast
6:35 PM 5.0 °F -10.8 °F -0.4 °F 78% 30.16 in 10.0 mi ENE 11.5 mph - N/A   Overcast
6:55 PM 3.2 °F -13.9 °F -0.4 °F 85% 30.16 in 10.0 mi ENE 12.7 mph - N/A   Overcast
7:15 PM 3.2 °F -15.3 °F -2.2 °F 78% 30.16 in 10.0 mi ENE 15.0 mph - N/A   Overcast
7:35 PM 1.4 °F -16.1 °F -2.2 °F 85% 30.17 in 10.0 mi ENE 12.7 mph - N/A Snow Light Snow
7:55 PM 1.4 °F -14.5 °F -4.0 °F 78% 30.17 in 10.0 mi ENE 10.4 mph - N/A   Overcast
8:15 PM -0.4 °F -19.2 °F -4.0 °F 85% 30.17 in 3.0 mi ENE 13.8 mph - N/A Snow Light Snow
8:35 PM -0.4 °F -16.7 °F -4.0 °F 85% 30.17 in 3.0 mi ENE 10.4 mph 16.1 mph N/A Snow Light Snow
8:55 PM -0.4 °F -17.6 °F -5.8 °F 78% 30.19 in 4.0 mi ENE 11.5 mph - N/A   Haze
9:15 PM -0.4 °F -17.6 °F -7.6 °F 72% 30.19 in 4.0 mi East 11.5 mph - N/A Snow Light Snow
9:35 PM -2.2 °F -18.9 °F -7.6 °F 78% 30.19 in 2.5 mi ENE 10.4 mph - N/A Snow Light Snow
9:55 PM -2.2 °F -15.6 °F -7.6 °F 78% 30.19 in 2.5 mi ENE 6.9 mph - N/A Snow Light Snow
10:15 PM -2.2 °F -18.0 °F -7.6 °F 78% 30.19 in 2.5 mi ENE 9.2 mph - N/A Snow Light Snow
10:35 PM -2.2 °F -18.0 °F -7.6 °F 78% 30.19 in 2.0 mi ENE 9.2 mph - 0.01 in Snow Light Snow
10:55 PM -2.2 °F -21.5 °F -7.6 °F 78% 30.19 in 3.0 mi ENE 13.8 mph - 0.02 in Snow Light Snow
11:15 PM -2.2 °F -20.7 °F -7.6 °F 78% 30.19 in 2.5 mi ENE 12.7 mph - N/A Snow Light Snow
11:35 PM -2.2 °F -21.5 °F -9.4 °F 71% 30.19 in 3.0 mi ENE 13.8 mph - N/A Snow Light Snow
11:55 PM -2.2 °F -19.9 °F -9.4 °F 71% 30.20 in 4.0 mi ENE 11.5 mph 17.3 mph 0.01 in Rain Light Freezing Rain